Change the Weather History Date:

Saturday, November 2, 2013

  Actual Average Record
Temperature  
Mean Temperature 73 °F 73 °F  
Max Temperature 82 °F 84 °F 95 °F (1997)
Min Temperature 64 °F 63 °F 37 °F (1903)
Cooling Degree Days 8 9  
Month to date cooling degree days 26 18  
Year to date cooling degree days 4391 4200  
Growing Degree Days 23 (Base 50)    
Moisture  
Dew Point 44 °F    
Average Humidity 50    
Maximum Humidity 82    
Minimum Humidity 18    
Precipitation  
Precipitation 0.00 in 0.05 in 0.77 in (1982)
Month to date precipitation T 0.09  
Year to date precipitation 12.31 20.21  
Sea Level Pressure  
Sea Level Pressure 30.16 in    
Wind  
Wind Speed 12 mph (NNE)    
Max Wind Speed 24 mph    
Max Gust Speed 35 mph    
Visibility 10 miles    
Events      
T = Trace of Precipitation, MM = Missing Value Source: NWS Daily Summary

Daily Weather History Graph

Daily Weather History Graph

Search for Another Location

Airport or City:

Trip Planner

Search our weather history database for the weather conditions in past years. The results will help you decide how hot, cold, wet, or windy it might be!

Date:

Astronomy

Nov. 02, 2013 Rise Set
Actual Time 7:42 AM CDT 6:49 PM CDT
Civil Twilight 7:18 AM CDT 7:13 PM CDT
Nautical Twilight 6:51 AM CDT 7:41 PM CDT
Astronomical Twilight 6:24 AM CDT 8:08 PM CDT
Moon 6:45 AM CDT (11/2) 6:20 PM CDT (11/2)
Length of Visible Light 11h 55m
Length of Day
11h 07m
Waning Crescent, 1% of the Moon is Illuminated
Nov 2
Waning Crescent
Nov 3
New
Nov 9
First Quarter
Nov 17
Full
Nov 25
Last Quarter

Hourly Weather History & Observations

Time (CDT) Temp. Dew Point Humidity Pressure Visibility Wind Dir Wind Speed Gust Speed Precip Events Conditions
12:53 AM 77.0 °F 68.0 °F 74% 29.98 in 10.0 mi North 5.8 mph - N/A   Partly Cloudy
1:53 AM 75.0 °F 69.1 °F 82% 30.00 in 10.0 mi NNW 6.9 mph - N/A   Partly Cloudy
2:53 AM 75.0 °F 53.1 °F 46% 30.02 in 10.0 mi North 21.9 mph 29.9 mph N/A   Clear
3:53 AM 71.1 °F 48.0 °F 44% 30.06 in 10.0 mi North 17.3 mph 27.6 mph N/A   Mostly Cloudy
4:53 AM 69.1 °F 46.0 °F 44% 30.08 in 10.0 mi North 17.3 mph 24.2 mph N/A   Mostly Cloudy
5:53 AM 66.9 °F 45.0 °F 45% 30.10 in 10.0 mi North 18.4 mph 23.0 mph N/A   Mostly Cloudy
6:53 AM 66.0 °F 44.1 °F 45% 30.14 in 10.0 mi North 13.8 mph - N/A   Partly Cloudy
7:53 AM 64.0 °F 45.0 °F 50% 30.18 in 10.0 mi NNW 10.4 mph - N/A   Partly Cloudy
8:53 AM 66.9 °F 44.1 °F 44% 30.21 in 10.0 mi North 16.1 mph - N/A   Partly Cloudy
9:53 AM 69.1 °F 44.1 °F 40% 30.25 in 10.0 mi North 19.6 mph 24.2 mph N/A   Clear
10:53 AM 72.0 °F 43.0 °F 35% 30.26 in 10.0 mi North 17.3 mph 20.7 mph N/A   Clear
11:53 AM 75.0 °F 42.1 °F 31% 30.25 in 10.0 mi NNW 16.1 mph 21.9 mph N/A   Clear
12:53 PM 77.0 °F 39.9 °F 26% 30.24 in 10.0 mi North 15.0 mph - N/A   Clear
1:53 PM 79.0 °F 39.0 °F 24% 30.20 in 10.0 mi NNE 8.1 mph 23.0 mph N/A   Clear
2:53 PM 81.0 °F 37.0 °F 21% 30.18 in 10.0 mi NNW 12.7 mph 17.3 mph N/A   Clear
3:53 PM 81.0 °F 37.0 °F 21% 30.16 in 10.0 mi North 11.5 mph 19.6 mph N/A   Clear
4:53 PM 82.0 °F 36.0 °F 19% 30.14 in 10.0 mi North 9.2 mph - N/A   Clear
5:53 PM 79.0 °F 33.1 °F 19% 30.14 in 10.0 mi NE 10.4 mph - N/A   Clear
6:53 PM 75.9 °F 34.0 °F 22% 30.17 in 10.0 mi ENE 9.2 mph - N/A   Clear
7:53 PM 73.0 °F 36.0 °F 26% 30.19 in 10.0 mi East 6.9 mph - N/A   Clear
8:53 PM 71.1 °F 39.0 °F 31% 30.21 in 10.0 mi ENE 8.1 mph - N/A   Clear
9:53 PM 69.1 °F 42.1 °F 38% 30.22 in 10.0 mi ENE 4.6 mph - N/A   Clear
10:53 PM 66.9 °F 43.0 °F 42% 30.22 in 10.0 mi NE 5.8 mph - N/A   Clear
11:53 PM 66.0 °F 43.0 °F 43% 30.22 in 10.0 mi ENE 4.6 mph - N/A   Clear